STARLINK-31018 (58635 NORAD) Tracking and Keplerian Element Data

This shows tracking and keplerian element data for the satellite.

Feedback or suggestion? Click here.




ElementValue
Catalog58635
NameSTARLINK-31018
Epoch Orbit457
Epoch Day13.25002315
Epoch Year2024
RAAN183.8402
Inclination43.0012
Eccentricity0.0001372
Argument of Perigee257.5216
Mean Anonmoly326.6532
Mean Motion15.5108743
Decay Rate-0.01915291
L11 58635U 23203T 24013.25002315 -.01915291 00000+0 -35705-1 0 9995
L22 58635 43.0012 183.8402 0001372 257.5216 326.6532 15.51087430 4573



Live tracking and technical data element details for STARLINK-31018 (NORAD 58635). STARLINK-31018 can be tracked NOW for your location showing map with azimuth and elevation plus other details from your city location.







IsCatalogInMostPopularTable: catalog: 58635, numindb: 24
Update: records affected: 1



GetName: 58635 STARLINK-31018

Hit Count: updated at: Wed, 17 Apr 2024 03:03:06 GMT